sat.trackr.live / text

‹ back to catalog

SDA_1669

NORAD 65979 · 2025-230F

PAYLOAD ACTIVE UNKNOWN

§ Identity

Operator
Country
US
Launch date
2025-10-15
Launch site
AFWTR
Launch vehicle
Mass (kg)
RCS (m²)

External: N2YO · Heavens-Above · Gunter

§ Orbital elements

Epoch: 2026-09-20T21:17:18.162528Z

Period
104.22 min
Inclination
81.2989°
Eccentricity
0.0003025
Mean motion
13.81708700 rev/d
Perigee alt
955.6 km
Apogee alt
960.1 km
Semi-major
7,336.0 km
B*
9.2788e-5
RAAN
123.1874°
Arg perigee
324.4782°
Mean anomaly
35.6171°
Rev number
4,704

§ Raw data

SDA_16691 65979U 25230F   26263.88701577  .00000111  00000+0  92788-4 0  99902 65979  81.2989 123.1874 0003025 324.4782  35.6171 13.81708700 47044

JSON: /api/v1/satellites/65979 · /tle

For live sub-satellite position, see the globe view (requires WebGL).

§ Visibility from observer

Set your observer location to see the next 7 days of passes ≥ 10°. The values pass through the URL so the page stays shareable.

No JS? Fill the form by hand. The geolocation button needs JavaScript.